Location: Parc National du Mont-Orford
(45.3122°N, 72.2403°W)
Time: 05:23:35
(UTC-05:00)

Envisat - Pass Details

Date: 25 January 2018
Orbit: 764 x 766 km, 98.2° (Epoch: 21 February)

Event Time Altitude Azimuth Distance (km) Brightness Sun altitude
Exits shadow 19:01:49 60° 55° (NE) 878 3.0 -23.7°
Drops below altitude 10° 19:06:32 10° 353° (N) 2,313 5.5 -24.6°
Sets 19:08:52 0° 350° (N) 3,243 6.3 -25.0°
